Pompano Beach, FL

8:43 PM EST on February 05, 2016 (GMT -0500)
Pompano Beach

Weather History for KPMP - March, 2014

Change the Weather History Date:

Monday, March 10, 2014

  Actual Average Record
Temperature  
Mean Temperature 72 °F -  
Max Temperature 81 °F 79 °F - (-1)
Min Temperature 64 °F 61 °F - (-1)
Cooling Degree Days 8    
Growing Degree Days 22 (Base 50)    
Moisture  
Dew Point 60 °F    
Average Humidity 65    
Maximum Humidity 84    
Minimum Humidity 47    
Precipitation  
Precipitation 0.00 in - - ()
Sea Level Pressure  
Sea Level Pressure 30.07 in    
Wind  
Wind Speed 6 mph (SW)    
Max Wind Speed 14 mph    
Max Gust Speed -    
Visibility 10 miles    
Events Rain    
Averages and records for this station are not official NWS values.
T = Trace of Precipitation, MM = Missing Value Source: NWS Daily Summary

Daily Weather History Graph

Daily Weather History Graph

Search for Another Location

Airport or City:

Trip Planner

Search our weather history database for the weather conditions in past years. The results will help you decide how hot, cold, wet, or windy it might be!

Date:

Astronomy

Mar. 10, 2014 Rise Set
Actual Time 7:34 AM EDT 7:26 PM EDT
Civil Twilight 7:11 AM EDT 7:49 PM EDT
Nautical Twilight 6:45 AM EDT 8:16 PM EDT
Astronomical Twilight 6:18 AM EDT 8:43 PM EDT
Moon 2:31 PM EDT (3/10) 3:22 AM EDT (3/10)
Length of Visible Light 12h 37m
Length of Day
11h 51m
Waxing Gibbous, 70% of the Moon is Illuminated
Mar 10
Waxing Gibbous
Mar 16
Full
Mar 23
Last Quarter
Mar 30
New
Apr 7
First Quarter

Hourly Weather History & Observations

Time (EDT) Temp. Heat Index Dew Point Humidity Pressure Visibility Wind Dir Wind Speed Gust Speed Precip Events Conditions
12:53 AM 69.1 °F - 60.1 °F 73% 30.12 in 10.0 mi SW 4.6 mph - N/A   Clear
1:53 AM 66.0 °F - 59.0 °F 78% 30.11 in 10.0 mi Calm Calm - N/A   Clear
2:53 AM 66.0 °F - 60.1 °F 81% 30.10 in 10.0 mi West 3.5 mph - N/A   Clear
3:53 AM 68.0 °F - 61.0 °F 78% 30.09 in 10.0 mi WNW 5.8 mph - N/A   Overcast
4:53 AM 66.9 °F - 60.1 °F 79% 30.09 in 10.0 mi WNW 6.9 mph - N/A   Overcast
5:53 AM 64.0 °F - 59.0 °F 84% 30.08 in 10.0 mi Calm Calm - N/A   Clear
6:53 AM 64.9 °F - 60.1 °F 84% 30.09 in 10.0 mi West 4.6 mph - N/A   Clear
7:53 AM 64.9 °F - 60.1 °F 84% 30.10 in 10.0 mi West 4.6 mph - 0.00 in Rain Light Rain
8:53 AM 70.0 °F - 60.1 °F 71% 30.11 in 10.0 mi WNW 5.8 mph - 0.00 in   Clear
9:53 AM 73.9 °F - 59.0 °F 59% 30.12 in 10.0 mi West 8.1 mph - N/A   Clear
10:53 AM 75.9 °F - 57.0 °F 52% 30.13 in 10.0 mi West 5.8 mph - N/A   Clear
11:53 AM 78.1 °F - 57.9 °F 50% 30.13 in 10.0 mi SW 6.9 mph - N/A   Scattered Clouds
12:53 PM 79.0 °F - 57.9 °F 48% 30.10 in 10.0 mi SW 5.8 mph - N/A   Scattered Clouds
1:53 PM 78.1 °F - 57.0 °F 48% 30.07 in 10.0 mi Variable 3.5 mph - N/A   Scattered Clouds
2:53 PM 81.0 °F 81.3 °F 59.0 °F 47% 30.04 in 10.0 mi ESE 10.4 mph - N/A   Partly Cloudy
3:53 PM 80.1 °F 80.7 °F 59.0 °F 48% 30.01 in 10.0 mi SSE 13.8 mph - N/A   Clear
4:53 PM 79.0 °F - 60.1 °F 52% 29.99 in 10.0 mi SSE 10.4 mph - N/A   Clear
5:53 PM 78.1 °F - 61.0 °F 56% 30.00 in 10.0 mi SSE 11.5 mph - N/A   Clear
6:53 PM 75.9 °F - 62.1 °F 62% 30.00 in 10.0 mi South 11.5 mph - N/A   Clear
7:53 PM 73.9 °F - 63.0 °F 68% 30.00 in 10.0 mi South 6.9 mph - N/A   Clear
8:53 PM 73.9 °F - 62.1 °F 66% 30.02 in 10.0 mi South 5.8 mph - N/A   Clear
9:53 PM 73.0 °F - 62.1 °F 68% 30.03 in 10.0 mi South 8.1 mph - N/A   Clear
10:53 PM 73.9 °F - 62.1 °F 66% 30.04 in 10.0 mi SW 6.9 mph - N/A   Clear
11:53 PM 73.0 °F - 60.1 °F 64% 30.05 in 10.0 mi West 9.2 mph - N/A   Overcast